Starlink 11352

operational
NORAD ID: 62880 Int'l Des: 2025-024 Owner: SPXS Country: US Constellation: starlink
LEOCIRCULAR

Über Starlink 11352

Beschreibung wird geladen...

Live-Position

3D-Globus wird geladen...

Nächste Überflüge

Höhenverlauf

Altitude vs Time

uPlot chart will show altitude changes over time

Zweizeiliger Elementsatz

1 62880U 25024B 25306.48830515 .00230240 00000-0 17396-2 0 9996
2 62880 42.9994 227.9598 0002059 283.4270 76.6368 15.70961459 43467
Epoch: 2. Nov. 2025 • Age: 35 hours

Aktueller Status

Höhe 358.4 km
Geschwindigkeit 7.70 km/s
Subsatellitenpunkt 42.70°N, 92.05°W
Startdatum 4. Feb. 2025
Alter 0.7 years
Typ internet

Technische Details

Klassifizierung Payload
Masse 960.00 kg
Trockenmasse 910.00 kg
Gesamtmasse 960.00 kg
Länge 0.30 m
Durchmesser 4.10 m
Spannweite 29.00 m
Form Box + pan
Hersteller SPXS
Bus-Typ Starlink V2MD
Phasenstatus In Orbit
Besitzer/Staat SPXS/US

Große Konstellationen

Loading constellations...